Weather History for Indianapolis, IN

Change the Weather History Date:

Wednesday, September 26, 2012

  Actual Average (KEYE) Record (KEYE)
Temperature  
Mean Temperature 66 °F 63 °F  
Max Temperature 71 °F 73 °F 87 °F (1998)
Min Temperature 60 °F 52 °F 42 °F (2000)
Degree Days  
Heating Degree Days 0 4  
Month to date heating degree days 37  
Since 1 July heating degree days 40  
Cooling Degree Days 0 2  
Month to date cooling degree days 116  
Year to date cooling degree days 1036  
Growing Degree Days 16 (Base 50)    
Moisture  
Dew Point 60 °F    
Average Humidity 82    
Maximum Humidity 91    
Minimum Humidity 71    
Precipitation  
Precipitation 0.07 in 0.07 in 1.22 in (1993)
Month to date precipitation 1.91  
Year to date precipitation 30.56  
Sea Level Pressure  
Sea Level Pressure 30.02 in    
Wind  
Wind Speed 7 mph (SW)    
Max Wind Speed 13 mph    
Max Gust Speed 23 mph    
Visibility 8 miles    
Events Fog , Rain , Thunderstorm    
T = Trace of Precipitation, MM = Missing Value Source: NWS Daily Summary

Daily Weather History Graph

Daily Weather History Graph

Search for Another Location

Airport:

Trip Planner

Search our weather history database for the weather conditions in past years. The results will help you decide how hot, cold, wet, or windy it might be!

Date:

Astronomy

Sep. 26, 2012 Rise Set
Actual Time 7:36 AM EDT 7:34 PM EDT
Civil Twilight 7:09 AM EDT 8:01 PM EDT
Nautical Twilight 6:38 AM EDT 8:33 PM EDT
Astronomical Twilight 6:06 AM EDT 9:04 PM EDT
Moon 5:33 PM EDT (9/26) 4:02 AM EDT (9/26)
Length of Visible Light 12h 51m
Length of Day
11h 57m
Waxing Gibbous, 88% of the Moon is Illuminated
Sep 26
Waxing Gibbous
Sep 29
Full
Oct 8
Last Quarter
Oct 15
New
Oct 21
First Quarter

Hourly Weather History & Observations

Time (EDT) Temp. Dew Point Humidity Pressure Visibility Wind Dir Wind Speed Gust Speed Precip Events Conditions
12:35 AM 66.7 °F 61.7 °F 84% 29.95 in 10.0 mi SSW 12.7 mph - N/A Thunderstorm Overcast
1:15 AM 67.1 °F 59.2 °F 76% 29.94 in 10.0 mi SW 12.7 mph 23.0 mph N/A   Overcast
1:35 AM 66.7 °F 58.3 °F 74% 29.95 in 10.0 mi WSW 11.5 mph 16.1 mph N/A   Overcast
2:15 AM 66.2 °F 58.1 °F 75% 29.96 in 10.0 mi SW 10.4 mph - N/A   Overcast
2:35 AM 65.7 °F 57.9 °F 76% 29.96 in 10.0 mi WSW 6.9 mph - N/A   Overcast
2:55 AM 65.3 °F 58.1 °F 77% 29.96 in 10.0 mi SW 11.5 mph - N/A   Overcast
3:15 AM 64.4 °F 58.1 °F 80% 29.95 in 10.0 mi SW 8.1 mph - N/A   Overcast
3:35 AM 63.9 °F 57.7 °F 80% 29.94 in 10.0 mi SW 6.9 mph - N/A   Overcast
4:15 AM 63.1 °F 57.7 °F 83% 29.94 in 10.0 mi SSW 4.6 mph - N/A   Mostly Cloudy
4:35 AM 62.8 °F 57.9 °F 84% 29.94 in 10.0 mi SSW 4.6 mph - N/A   Overcast
4:55 AM 63.1 °F 57.7 °F 83% 29.95 in 10.0 mi SSW 6.9 mph - N/A   Overcast
5:15 AM 63.1 °F 57.7 °F 83% 29.95 in 10.0 mi South 11.5 mph - N/A   Overcast
5:35 AM 63.1 °F 57.7 °F 83% 29.95 in 10.0 mi SSW 5.8 mph - N/A   Scattered Clouds
5:55 AM 63.5 °F 57.7 °F 81% 29.95 in 10.0 mi SW 5.8 mph - N/A   Scattered Clouds
6:15 AM 63.3 °F 57.6 °F 81% 29.96 in 10.0 mi SW 6.9 mph - N/A   Scattered Clouds
6:35 AM 63.5 °F 57.9 °F 82% 29.97 in 10.0 mi SW 8.1 mph - N/A Thunderstorm Overcast
6:55 AM 64.2 °F 58.3 °F 81% 29.97 in 10.0 mi SW 6.9 mph - N/A   Overcast
7:15 AM 64.6 °F 58.5 °F 80% 29.98 in 10.0 mi SW 10.4 mph - N/A   Overcast
7:35 AM 64.8 °F 58.8 °F 81% 29.99 in 10.0 mi SW 10.4 mph - N/A   Overcast
7:55 AM 64.8 °F 58.6 °F 81% 29.99 in 10.0 mi SW 9.2 mph - N/A   Overcast
8:35 AM 64.4 °F 59.0 °F 83% 30.00 in 10.0 mi SSW 8.1 mph - N/A   Overcast
8:55 AM 63.9 °F 59.0 °F 84% 30.00 in 10.0 mi SSW 5.8 mph - N/A   Overcast
9:15 AM 63.9 °F 59.0 °F 84% 30.00 in 10.0 mi SSW 5.8 mph - N/A   Mostly Cloudy
9:35 AM 64.0 °F 59.2 °F 84% 30.01 in 10.0 mi SSW 8.1 mph - N/A   Scattered Clouds
9:55 AM 64.9 °F 59.2 °F 82% 30.02 in 10.0 mi SW 6.9 mph - N/A   Mostly Cloudy
10:15 AM 66.0 °F 59.2 °F 79% 30.02 in 10.0 mi SW 6.9 mph 11.5 mph N/A   Overcast
10:35 AM 66.9 °F 59.2 °F 76% 30.02 in 10.0 mi WSW 6.9 mph - N/A   Overcast
10:55 AM 67.5 °F 59.2 °F 75% 30.03 in 10.0 mi WSW 6.9 mph - N/A   Overcast
11:15 AM 68.0 °F 59.0 °F 73% 30.04 in 10.0 mi West 9.2 mph - N/A   Overcast
11:35 AM 68.4 °F 59.2 °F 72% 30.04 in 10.0 mi West 6.9 mph - N/A   Overcast
12:35 PM 69.8 °F 61.7 °F 75% 30.05 in 10.0 mi WSW 9.2 mph - N/A Thunderstorm Overcast
12:55 PM 71.8 °F 62.4 °F 72% 30.04 in 10.0 mi WSW 8.1 mph - N/A Thunderstorm Scattered Clouds
1:15 PM 71.8 °F 62.1 °F 71% 30.05 in 10.0 mi West 6.9 mph - N/A   Mostly Cloudy
1:35 PM 70.9 °F 62.4 °F 75% 30.06 in 10.0 mi West 8.1 mph - N/A   Light Drizzle
1:55 PM 69.8 °F 61.7 °F 75% 30.06 in 10.0 mi West 10.4 mph 18.4 mph N/A Rain Light Rain
2:15 PM 68.7 °F 62.6 °F 81% 30.06 in 7.0 mi WSW 10.4 mph - 0.01 in Rain Light Rain
2:35 PM 68.2 °F 63.0 °F 83% 30.05 in 7.0 mi WSW 6.9 mph - 0.02 in Rain Light Rain
2:55 PM 68.5 °F 63.7 °F 84% 30.04 in 7.0 mi West 6.9 mph - 0.03 in Rain Light Rain
3:15 PM 68.9 °F 63.5 °F 83% 30.03 in 10.0 mi NW 5.8 mph - N/A Rain Light Rain
3:35 PM 68.9 °F 63.5 °F 83% 30.03 in 10.0 mi NW 3.5 mph - 0.01 in Rain Rain
3:55 PM 68.0 °F 63.0 °F 84% 30.04 in 7.0 mi Calm Calm - 0.03 in Rain Light Rain
4:15 PM 68.0 °F 63.5 °F 85% 30.04 in 10.0 mi Calm Calm - N/A   Overcast
4:35 PM 68.0 °F 63.5 °F 85% 30.04 in 7.0 mi Calm Calm - N/A Rain Rain
4:55 PM 68.0 °F 63.5 °F 85% 30.05 in 5.0 mi SW 5.8 mph - 0.01 in Rain Light Rain
5:15 PM 67.1 °F 61.9 °F 83% 30.05 in 10.0 mi SSW 4.6 mph - N/A Rain Light Rain
5:35 PM 66.7 °F 61.9 °F 84% 30.05 in 10.0 mi SSW 3.5 mph - N/A   Overcast
6:15 PM 66.6 °F 61.7 °F 84% 30.06 in 10.0 mi Calm Calm - N/A Rain Light Rain
6:35 PM 66.6 °F 61.9 °F 85% 30.06 in 10.0 mi SW 3.5 mph - N/A   Scattered Clouds
6:55 PM 66.2 °F 61.0 °F 83% 30.07 in 10.0 mi SSW 4.6 mph - N/A   Scattered Clouds
7:15 PM 65.7 °F 61.0 °F 85% 30.07 in 10.0 mi SSW 3.5 mph - N/A   Clear
7:35 PM 65.1 °F 60.8 °F 86% 30.07 in 10.0 mi Calm Calm - N/A   Clear
7:55 PM 63.5 °F 59.7 °F 87% 30.07 in 7.0 mi Calm Calm - N/A   Clear
8:15 PM 62.4 °F 59.0 °F 89% 30.08 in 5.0 mi Calm Calm - N/A   Scattered Clouds
8:35 PM 61.5 °F 58.3 °F 89% 30.08 in 3.0 mi Calm Calm - N/A   Scattered Clouds
8:55 PM 60.4 °F 57.4 °F 90% 30.08 in 0.5 mi Calm Calm - N/A Fog Fog
9:35 PM 60.8 °F 57.9 °F 90% 30.08 in 3.0 mi Calm Calm - N/A   Scattered Clouds
9:55 PM 61.3 °F 58.5 °F 90% 30.09 in 3.0 mi NNE 3.5 mph - N/A   Scattered Clouds
10:15 PM 61.7 °F 59.0 °F 91% 30.09 in 4.0 mi Calm Calm - N/A   Clear
10:35 PM 61.2 °F 58.3 °F 90% 30.09 in 3.0 mi Calm Calm - N/A   Clear
10:55 PM 61.2 °F 58.3 °F 90% 30.10 in 4.0 mi Calm Calm - N/A   Scattered Clouds
11:15 PM 61.5 °F 58.6 °F 90% 30.10 in 4.0 mi NE 3.5 mph - N/A   Scattered Clouds
11:35 PM 61.0 °F 58.1 °F 90% 30.11 in 4.0 mi Calm Calm - N/A   Clear
11:55 PM 61.3 °F 58.6 °F 91% 30.10 in 4.0 mi Calm Calm - N/A   Clear